Карточка аэропорта UUYY

Внимание!
Информация на этой странице в стадии наполнения.
Если вы не увидели какой-то информации, или заметили неточность - пожалуйста сообщите нам!
Спасибо!
Команда RU-STAFF
Название аэропортаСыктывкар
Название аэропорта (англ.)Syktyvkar
Превышение341 ft. (103.9 m.)
Координаты61°38.502', 50°50.298'
Высота перехода700
Эшелон переходаQFE>760: FL40; 760>QFE>733: FL50; 733 >QFE :FL60;
Коды ответчика3130-3134, 5752-5757, 5770-5777, 6701-6717
Зона ОрВДСанкт-Петербург РПИ (ULLL)
Данные METARUUYY 121430Z 23003MPS 9999 SCT033CB 21/15 Q1010 R18/61D NOSIG RMK QFE749/0999
Проноз погоды (TAF)UUYY 121400Z 1215/1315 25003G10MPS 9999 BKN017CB TEMPO 1215/1218 27006G14MPS 2100 -TSRA FEW007 BKN016CB BECMG 1218/1219 29003G10MPS
NOTAMshow/hide NOTAM
AWOS   TABLE

Информация о ВПП

ВПП Длина ВПП (м.) Покрытие Курс ВПП Частота ILS
012500Асфальтобетон6108.3
192500Асфальтобетон186111.7

Диспетчерские позиции

Позывной Наименование органа УВД Частота
UUYY_R_APPСивкар-Круг124.600
UUYY_TWRСивкар-Старт124.600



Спутниковое изображение